| time (UTC) | temp C | wind direction | speed KPH | gust KPH | rain 1hr cm | rain 24hr cm | rain mn cm | humidity % | barometer mb |
| 20260506180046 | 17 | 101 | 1.6 | 14.5 | 0.00 | 0.03 | 0.03 | 65 | 1016.3 |
| 20260506174536 | 17 | 116 | 1.6 | 12.9 | 0.00 | 0.05 | 0.03 | 64 | 1016.2 |
| 20260506173035 | 18 | 148 | 6.4 | 14.5 | 0.00 | 0.05 | 0.03 | 60 | 1016.0 |
| 20260506171547 | 18 | 125 | 4.8 | 8.0 | 0.00 | 0.05 | 0.03 | 56 | 1015.9 |
| 20260506170036 | 19 | 155 | 3.2 | 8.0 | 0.00 | 0.05 | 0.03 | 56 | 1015.7 |
| 20260506164536 | 19 | 180 | 4.8 | 16.1 | 0.00 | 0.43 | 0.03 | 54 | 1015.6 |
| 20260506163041 | 19 | 127 | 6.4 | 16.1 | 0.00 | 0.43 | 0.03 | 53 | 1015.5 |
| 20260506161544 | 20 | 176 | 3.2 | 11.3 | 0.00 | 0.43 | 0.03 | 54 | 1015.4 |
| 20260506160032 | 20 | 180 | 8.0 | 17.7 | 0.00 | 0.43 | 0.03 | 54 | 1015.4 |
| 20260506154529 | 20 | 125 | 8.0 | 19.3 | 0.00 | 0.43 | 0.03 | 55 | 1015.2 |
| 20260506153029 | 20 | 107 | 11.3 | 24.1 | 0.00 | 0.43 | 0.03 | 54 | 1015.2 |
| 20260506151528 | 20 | 95 | 6.4 | 16.1 | 0.00 | 0.43 | 0.03 | 53 | 1015.3 |
| 20260506150030 | 20 | 149 | 6.4 | 16.1 | 0.00 | 0.43 | 0.03 | 51 | 1015.4 |
| 20260506144527 | 21 | 115 | 1.6 | 6.4 | 0.00 | 0.43 | 0.03 | 49 | 1015.5 |
| 20260506143025 | 21 | 110 | 1.6 | 11.3 | 0.00 | 0.43 | 0.03 | 47 | 1015.5 |
| 20260506141523 | 21 | 111 | 4.8 | 12.9 | 0.00 | 0.43 | 0.03 | 48 | 1015.6 |
| 20260506140023 | 21 | 166 | 4.8 | 16.1 | 0.00 | 0.43 | 0.03 | 49 | 1015.8 |
| 20260506134539 | 20 | 120 | 6.4 | 12.9 | 0.00 | 0.43 | 0.03 | 51 | 1015.9 |
| 20260506133019 | 20 | 152 | 6.4 | 22.5 | 0.00 | 0.43 | 0.03 | 51 | 1016.2 |
| 20260506131516 | 20 | 198 | 8.0 | 17.7 | 0.00 | 0.43 | 0.03 | 52 | 1016.3 |
| 20260506130018 | 20 | 159 | 6.4 | 17.7 | 0.00 | 0.43 | 0.03 | 53 | 1016.3 |
| 20260506124516 | 20 | 138 | 1.6 | 6.4 | 0.00 | 0.43 | 0.03 | 55 | 1016.3 |
| 20260506123009 | 18 | 158 | 9.7 | 19.3 | 0.00 | 0.43 | 0.03 | 75 | 1016.4 |
| 20260506121509 | 17 | 148 | 6.4 | 11.3 | 0.00 | 0.43 | 0.03 | 94 | 1016.5 |
| 20260506120008 | 16 | 205 | 3.2 | 11.3 | 0.00 | 0.43 | 0.03 | 95 | 1016.6 |
| 20260506114503 | 16 | 23 | 1.6 | 8.0 | 0.00 | 0.43 | 0.03 | 96 | 1016.7 |
| 20260506113100 | 16 | 352 | 1.6 | 6.4 | 0.00 | 0.43 | 0.03 | 96 | 1016.9 |
| 20260506111613 | 16 | 296 | 4.8 | 11.3 | 0.00 | 0.43 | 0.03 | 94 | 1017.1 |
| 20260506110058 | 16 | 229 | 0.0 | 6.4 | 0.00 | 0.43 | 0.03 | 96 | 1017.2 |
| 20260506104603 | 15 | 271 | 1.6 | 11.3 | 0.00 | 0.43 | 0.03 | 95 | 1017.3 |
| 20260506103055 | 15 | 298 | 6.4 | 14.5 | 0.00 | 0.43 | 0.03 | 95 | 1017.5 |
| 20260506101552 | 15 | 207 | 0.0 | 9.7 | 0.00 | 0.43 | 0.03 | 97 | 1017.5 |
| 20260506100051 | 14 | 283 | 3.2 | 11.3 | 0.00 | 0.43 | 0.03 | 97 | 1017.7 |
| 20260506094549 | 14 | 160 | 0.0 | 9.7 | 0.00 | 0.43 | 0.03 | 98 | 1017.7 |
| 20260506093053 | 13 | 274 | 1.6 | 12.9 | 0.00 | 0.43 | 0.03 | 97 | 1017.8 |
| 20260506091548 | 13 | 282 | 3.2 | 11.3 | 0.00 | 0.43 | 0.03 | 96 | 1017.8 |
| 20260506090045 | 14 | 205 | 0.0 | 8.0 | 0.00 | 0.43 | 0.03 | 99 | 1017.8 |
| 20260506084542 | 13 | 298 | 3.2 | 14.5 | 0.00 | 0.43 | 0.03 | 98 | 1017.6 |
| 20260506083051 | 13 | 271 | 1.6 | 8.0 | 0.00 | 0.43 | 0.03 | 98 | 1017.6 |
| 20260506081546 | 12 | 279 | 3.2 | 11.3 | 0.00 | 0.43 | 0.03 | 99 | 1017.6 |
| 20260506073033 | 11 | 280 | 1.6 | 6.4 | 0.00 | 0.43 | 0.03 | 100 | 1017.4 |
| 20260506071532 | 11 | 274 | 0.0 | 6.4 | 0.00 | 0.43 | 0.03 | 100 | 1017.3 |
| 20260506061534 | 8 | 288 | 0.0 | 0.0 | 0.00 | 0.43 | 0.03 | 100 | 1017.3 |
| 20260506044518 | 7 | 288 | 1.6 | 3.2 | 0.00 | 0.43 | 0.03 | 100 | 1016.6 |
| 20260506043015 | 7 | 288 | 1.6 | 3.2 | 0.00 | 0.43 | 0.03 | 99 | 1016.6 |
| 20260506041514 | 7 | 288 | 0.0 | 0.0 | 0.00 | 0.43 | 0.03 | 99 | 1016.4 |
| 20260506040013 | 7 | 288 | 0.0 | 0.0 | 0.00 | 0.43 | 0.03 | 99 | 1016.4 |
| 20260506034511 | 7 | 288 | 0.0 | 0.0 | 0.00 | 0.43 | 0.03 | 99 | 1016.2 |
| 20260506033014 | 7 | 288 | 0.0 | 1.6 | 0.00 | 0.43 | 0.03 | 100 | 1016.2 |
| 20260506031508 | 7 | 288 | 0.0 | 3.2 | 0.00 | 0.43 | 0.03 | 100 | 1016.2 |
| 20260506030005 | 7 | 288 | 0.0 | 1.6 | 0.00 | 0.43 | 0.03 | 99 | 1016.1 |
| 20260506024510 | 8 | 288 | 0.0 | 0.0 | 0.00 | 0.43 | 0.03 | 99 | 1016.2 |
| 20260506023003 | 8 | 288 | 0.0 | 0.0 | 0.03 | 0.43 | 0.03 | 99 | 1016.2 |
| 20260506021506 | 8 | 288 | 0.0 | 1.6 | 0.03 | 0.43 | 0.03 | 100 | 1016.1 |
| 20260506020001 | 8 | 288 | 0.0 | 0.0 | 0.03 | 0.43 | 0.03 | 99 | 1016.0 |
| 20260506014613 | 8 | 288 | 0.0 | 0.0 | 0.03 | 0.43 | 0.03 | 99 | 1015.8 |
| 20260506014503 | 8 | 288 | 0.0 | 0.0 | 0.03 | 0.43 | 0.03 | 100 | 1015.8 |
| 20260506013059 | 8 | 288 | 0.0 | 0.0 | 0.00 | 0.43 | 0.00 | 100 | 1015.7 |
| 20260506011623 | 8 | 288 | 1.6 | 6.4 | 0.00 | 0.43 | 0.00 | 100 | 1015.8 |
| 20260506010057 | 8 | 128 | 0.0 | 6.4 | 0.00 | 0.43 | 0.00 | 100 | 1015.9 |
| 20260506004604 | 8 | 278 | 0.0 | 0.0 | 0.00 | 0.43 | 0.00 | 100 | 1016.1 |
| 20260506003053 | 8 | 280 | 0.0 | 0.0 | 0.00 | 0.43 | 0.00 | 100 | 1016.2 |
| 20260506001551 | 9 | 278 | 0.0 | 0.0 | 0.00 | 0.43 | 0.00 | 100 | 1016.2 |
| 20260506000114 | 9 | 278 | 0.0 | 0.0 | 0.00 | 0.43 | 0.00 | 100 | 1016.3 |
| 20260505234552 | 10 | 280 | 0.0 | 0.0 | 0.00 | 0.43 | 0.00 | 99 | 1016.3 |
| 20260505233046 | 10 | 280 | 0.0 | 0.0 | 0.00 | 0.43 | 0.00 | 99 | 1016.3 |
| 20260505231546 | 10 | 280 | 0.0 | 3.2 | 0.00 | 0.43 | 0.00 | 99 | 1016.3 |
| 20260505230059 | 10 | 278 | 0.0 | 0.0 | 0.00 | 0.43 | 0.00 | 99 | 1016.0 |
| 20260505224542 | 10 | 280 | 0.0 | 0.0 | 0.00 | 0.43 | 0.00 | 100 | 1016.1 |
| 20260505223039 | 11 | 278 | 0.0 | 0.0 | 0.00 | 0.43 | 0.00 | 100 | 1016.5 |
| 20260505221536 | 11 | 278 | 0.0 | 0.0 | 0.00 | 0.43 | 0.00 | 100 | 1016.5 |
| 20260505220034 | 11 | 279 | 0.0 | 0.0 | 0.00 | 0.43 | 0.00 | 100 | 1016.7 |
| 20260505214533 | 11 | 279 | 0.0 | 3.2 | 0.00 | 0.43 | 0.43 | 100 | 1016.7 |
| 20260505213034 | 11 | 279 | 1.6 | 6.4 | 0.00 | 0.43 | 0.43 | 99 | 1016.7 |
| 20260505211536 | 11 | 284 | 0.0 | 3.2 | 0.00 | 0.43 | 0.43 | 100 | 1016.5 |
| 20260505210032 | 11 | 302 | 1.6 | 4.8 | 0.00 | 0.43 | 0.43 | 99 | 1016.5 |
| 20260505204543 | 11 | 316 | 0.0 | 1.6 | 0.00 | 0.53 | 0.43 | 99 | 1016.2 |
| 20260505203034 | 11 | 315 | 0.0 | 1.6 | 0.00 | 0.53 | 0.43 | 99 | 1016.2 |
| 20260505201531 | 11 | 316 | 0.0 | 1.6 | 0.00 | 0.53 | 0.43 | 100 | 1016.1 |
| 20260505200029 | 11 | 314 | 0.0 | 0.0 | 0.00 | 0.53 | 0.43 | 99 | 1015.8 |
| 20260505194534 | 11 | 316 | 0.0 | 0.0 | 0.00 | 0.61 | 0.43 | 100 | 1015.5 |
| 20260505193027 | 11 | 316 | 0.0 | 0.0 | 0.00 | 0.61 | 0.43 | 99 | 1015.3 |
| 20260505191527 | 11 | 315 | 0.0 | 4.8 | 0.00 | 0.61 | 0.43 | 99 | 1015.2 |
| 20260505190033 | 11 | 301 | 0.0 | 1.6 | 0.00 | 0.61 | 0.43 | 99 | 1015.3 |
| 20260505184532 | 11 | 297 | 0.0 | 0.0 | 0.00 | 0.61 | 0.43 | 99 | 1015.2 |
| 20260505183025 | 12 | 297 | 0.0 | 3.2 | 0.03 | 0.61 | 0.43 | 99 | 1015.3 |
| 20260505181525 | 12 | 297 | 0.0 | 0.0 | 0.05 | 0.61 | 0.43 | 99 | 1015.0 |